When you browse on this site, cookies collect data to enhance your experience and personalize the content and advertising you see.
Visit our Privacy Policy to learn more. By continuing to use the site, you agree to this use of cookies and data.
  • In Czech Republic
  • List of Countries
  • For 7 days
  • Water Temperature
  • Satellite Maps
  • Weather Map
  • Weather Widgets
  • user-avatar
    Login

    Hourly Weather Dhaka

    Today, 24 May, Friday

    Time Temperature Precipitation Wind Pressure Humidity
    00:00 +32°C° 0 mm 2 mps 753 mmHg 76%
    01:00 +31°C° 6.5 mm 2 mps 753 mmHg 78%
    02:00 +31°C° 6.5 mm 3 mps 752 mmHg 80%
    03:00 +30°C° 6.5 mm 3 mps 752 mmHg 83%
    04:00 +30°C° 0 mm 3 mps 752 mmHg 83%
    05:00 +30°C° 0 mm 3 mps 753 mmHg 83%
    06:00 +32°C° 0 mm 4 mps 753 mmHg 84%
    07:00 +33°C° 0.9 mm 4 mps 753 mmHg 78%
    08:00 +34°C° 0.9 mm 4 mps 753 mmHg 71%
    09:00 +36°C° 0.9 mm 4 mps 754 mmHg 64%
    10:00 +37°C° 0 mm 5 mps 753 mmHg 61%
    11:00 +37°C° 0 mm 5 mps 753 mmHg 57%
    12:00 +37°C° 0 mm 5 mps 753 mmHg 58%
    13:00 +37°C° 0.4 mm 5 mps 752 mmHg 57%
    14:00 +38°C° 0.4 mm 4 mps 751 mmHg 56%
    15:00 +38°C° 0.4 mm 4 mps 751 mmHg 55%
    16:00 +37°C° 2 mm 4 mps 750 mmHg 58%
    17:00 +36°C° 2 mm 4 mps 750 mmHg 61%
    18:00 +36°C° 2 mm 5 mps 750 mmHg 64%
    19:00 +35°C° 1 mm 5 mps 750 mmHg 68%
    20:00 +34°C° 1 mm 6 mps 750 mmHg 71%
    21:00 +33°C° 1 mm 6 mps 750 mmHg 74%
    22:00 +33°C° 0.3 mm 5 mps 751 mmHg 76%
    23:00 +32°C° 0.3 mm 5 mps 751 mmHg 78%

    Tomorrow, 25 May, Saturday

    Time Temperature Precipitation Wind Pressure Humidity
    00:00 +32°C° 0.3 mm 4 mps 751 mmHg 80%
    01:00 +32°C° 0.1 mm 4 mps 751 mmHg 81%
    02:00 +32°C° 0.1 mm 4 mps 750 mmHg 81%
    03:00 +32°C° 0.1 mm 4 mps 750 mmHg 81%
    04:00 +32°C° 0.1 mm 4 mps 750 mmHg 81%
    05:00 +32°C° 0.1 mm 5 mps 750 mmHg 81%
    06:00 +32°C° 0.1 mm 5 mps 750 mmHg 81%
    07:00 +33°C° 0 mm 5 mps 750 mmHg 77%
    08:00 +34°C° 0 mm 5 mps 750 mmHg 73%
    09:00 +35°C° 0 mm 6 mps 751 mmHg 69%
    10:00 +35°C° 0 mm 5 mps 751 mmHg 67%
    11:00 +36°C° 0 mm 5 mps 751 mmHg 65%
    12:00 +37°C° 0 mm 5 mps 750 mmHg 63%
    13:00 +37°C° 0 mm 5 mps 750 mmHg 62%
    14:00 +39°C° 0 mm 6 mps 749 mmHg 60%
    15:00 +39°C° 0 mm 7 mps 748 mmHg 59%
    16:00 +38°C° 0 mm 7 mps 748 mmHg 62%
    17:00 +36°C° 0 mm 7 mps 747 mmHg 65%
    18:00 +35°C° 0 mm 7 mps 747 mmHg 68%
    19:00 +34°C° 2.9 mm 6 mps 748 mmHg 70%
    20:00 +33°C° 2.9 mm 6 mps 749 mmHg 72%
    21:00 +32°C° 2.9 mm 5 mps 750 mmHg 74%
    22:00 +32°C° 0 mm 5 mps 750 mmHg 77%
    23:00 +32°C° 0 mm 4 mps 750 mmHg 81%

    Day after tomorrow, 26 May, Sunday

    Time Temperature Precipitation Wind Pressure Humidity
    00:00 +31°C° 0 mm 3 mps 750 mmHg 84%
    01:00 +32°C° 0 mm 4 mps 749 mmHg 85%
    02:00 +32°C° 0 mm 4 mps 749 mmHg 85%
    03:00 +32°C° 0 mm 5 mps 749 mmHg 86%
    04:00 +32°C° 0 mm 5 mps 749 mmHg 85%
    05:00 +32°C° 0 mm 4 mps 749 mmHg 85%
    06:00 +31°C° 0 mm 3 mps 750 mmHg 85%
    07:00 +33°C° 0 mm 4 mps 750 mmHg 80%
    08:00 +34°C° 0 mm 4 mps 751 mmHg 74%
    09:00 +36°C° 0 mm 4 mps 751 mmHg 68%
    10:00 +37°C° 0 mm 4 mps 751 mmHg 64%
    11:00 +38°C° 0 mm 4 mps 751 mmHg 60%
    12:00 +40°C° 0 mm 4 mps 751 mmHg 56%
    13:00 +40°C° 1.3 mm 4 mps 750 mmHg 57%
    14:00 +38°C° 1.3 mm 4 mps 749 mmHg 58%
    15:00 +38°C° 1.3 mm 4 mps 749 mmHg 59%
    16:00 +37°C° 2.1 mm 4 mps 749 mmHg 61%
    17:00 +37°C° 2.1 mm 5 mps 749 mmHg 64%
    18:00 +36°C° 2.1 mm 5 mps 748 mmHg 66%
    19:00 +35°C° 0 mm 5 mps 749 mmHg 69%
    20:00 +34°C° 0 mm 5 mps 750 mmHg 73%
    21:00 +34°C° 0 mm 6 mps 750 mmHg 76%
    22:00 +33°C° 0 mm 5 mps 750 mmHg 78%
    23:00 +33°C° 0 mm 5 mps 750 mmHg 80%

    27 May, Monday

    Time Temperature Precipitation Wind Pressure Humidity
    00:00 +32°C° 0 mm 5 mps 750 mmHg 82%
    01:00 +32°C° 0 mm 4 mps 750 mmHg 83%
    02:00 +31°C° 0 mm 3 mps 750 mmHg 84%
    03:00 +31°C° 0 mm 2 mps 750 mmHg 85%
    04:00 +31°C° 0.1 mm 2 mps 750 mmHg 85%
    05:00 +31°C° 0.1 mm 3 mps 750 mmHg 84%
    06:00 +31°C° 0.1 mm 3 mps 751 mmHg 83%
    07:00 +33°C° 0 mm 4 mps 751 mmHg 77%
    08:00 +35°C° 0 mm 5 mps 751 mmHg 70%
    09:00 +36°C° 0 mm 5 mps 752 mmHg 64%
    10:00 +37°C° 0 mm 5 mps 752 mmHg 59%
    11:00 +40°C° 0 mm 5 mps 751 mmHg 54%
    12:00 +41°C° 0 mm 5 mps 751 mmHg 49%
    13:00 +42°C° 0 mm 4 mps 750 mmHg 46%
    14:00 +42°C° 0 mm 4 mps 750 mmHg 44%
    15:00 +43°C° 0 mm 3 mps 749 mmHg 41%
    16:00 +42°C° 0 mm 4 mps 749 mmHg 46%
    17:00 +40°C° 0 mm 5 mps 748 mmHg 51%
    18:00 +39°C° 0 mm 6 mps 748 mmHg 56%
    19:00 +38°C° 0 mm 6 mps 749 mmHg 59%
    20:00 +36°C° 0 mm 6 mps 749 mmHg 63%
    21:00 +35°C° 0 mm 6 mps 750 mmHg 66%
    22:00 +34°C° 0.2 mm 5 mps 750 mmHg 70%
    23:00 +34°C° 0.2 mm 4 mps 750 mmHg 74%

    28 May, Tuesday

    Time Temperature Precipitation Wind Pressure Humidity
    00:00 +33°C° 0.2 mm 3 mps 750 mmHg 78%
    01:00 +33°C° 0 mm 3 mps 750 mmHg 79%
    02:00 +33°C° 0 mm 3 mps 750 mmHg 81%
    03:00 +32°C° 0 mm 4 mps 750 mmHg 82%
    04:00 +32°C° 0 mm 4 mps 750 mmHg 82%
    05:00 +32°C° 0 mm 4 mps 751 mmHg 81%
    06:00 +32°C° 0 mm 4 mps 751 mmHg 81%
    07:00 +34°C° 0 mm 4 mps 751 mmHg 75%
    08:00 +35°C° 0 mm 4 mps 752 mmHg 70%
    09:00 +36°C° 0 mm 4 mps 752 mmHg 65%
    10:00 +37°C° 0 mm 4 mps 752 mmHg 58%
    11:00 +40°C° 0 mm 4 mps 751 mmHg 52%
    12:00 +41°C° 0 mm 4 mps 751 mmHg 46%
    13:00 +42°C° 0 mm 4 mps 750 mmHg 43%
    14:00 +43°C° 0 mm 4 mps 749 mmHg 40%
    15:00 +44°C° 0 mm 4 mps 748 mmHg 37%
    16:00 +42°C° 0 mm 5 mps 748 mmHg 42%
    17:00 +41°C° 0 mm 6 mps 748 mmHg 47%
    18:00 +40°C° 0 mm 7 mps 748 mmHg 53%
    19:00 +38°C° 0.9 mm 7 mps 749 mmHg 58%
    20:00 +36°C° 0.9 mm 6 mps 750 mmHg 63%
    21:00 +34°C° 0.9 mm 6 mps 750 mmHg 69%
    22:00 +34°C° 0.6 mm 6 mps 750 mmHg 72%
    23:00 +34°C° 0.6 mm 6 mps 750 mmHg 74%

    29 May, Wednesday

    Time Temperature Precipitation Wind Pressure Humidity
    00:00 +33°C° 0.6 mm 5 mps 751 mmHg 77%
    01:00 +33°C° 0 mm 4 mps 750 mmHg 79%
    02:00 +33°C° 0 mm 3 mps 750 mmHg 80%
    03:00 +31°C° 0 mm 2 mps 750 mmHg 81%
    04:00 +31°C° 0 mm 3 mps 750 mmHg 82%
    05:00 +31°C° 0 mm 3 mps 750 mmHg 82%
    06:00 +32°C° 0 mm 4 mps 751 mmHg 82%
    07:00 +34°C° 0 mm 4 mps 751 mmHg 76%
    08:00 +35°C° 0 mm 4 mps 752 mmHg 71%
    09:00 +36°C° 0 mm 4 mps 752 mmHg 65%
    10:00 +37°C° 0 mm 4 mps 752 mmHg 61%
    11:00 +38°C° 0 mm 4 mps 751 mmHg 57%
    12:00 +39°C° 0 mm 3 mps 751 mmHg 53%
    13:00 +40°C° 0 mm 4 mps 750 mmHg 51%
    14:00 +41°C° 0 mm 4 mps 749 mmHg 49%
    15:00 +41°C° 0 mm 4 mps 749 mmHg 47%
    16:00 +41°C° 0 mm 4 mps 748 mmHg 49%
    17:00 +40°C° 0 mm 4 mps 748 mmHg 51%
    18:00 +40°C° 0 mm 5 mps 748 mmHg 52%
    19:00 +37°C° 0 mm 5 mps 749 mmHg 57%
    20:00 +36°C° 0 mm 6 mps 749 mmHg 61%
    21:00 +35°C° 0 mm 7 mps 750 mmHg 65%
    22:00 +34°C° 0 mm 7 mps 750 mmHg 69%
    23:00 +34°C° 0 mm 6 mps 750 mmHg 73%
    Show more